World > North America > United States > Minnesota > Nett River

Hourly Nett River, MN Regional Weather

Feedback E-mail the Weather

Quick WX

Nett River, MN Weather Maps

°F °C°F °C
Nett River Weather Map
UTC Time: 8/19/2022, 11:04
Your Time:

Nett River, MN Regional Weather

Expires:202208191100;;305751
ASUS43 KMPX 191010
RWRMN 
WEATHER ROUNDUP FOR MINNESOTA
NATIONAL WEATHER SERVICE TWIN CITIES/CHANHASSEN MN
500 AM CDT FRI AUG 19 2022


NOTE: "FAIR" INDICATES FEW OR NO CLOUDS BELOW 12,000 FEET WITH NO
SIGNIFICANT WEATHER AND/OR OBSTRUCTIONS TO VISIBILITY. N/A MEANS
CURRENT SKY AND/OR WEATHER CONDITIONS ARE NOT AVAILABLE.


MNZ006-009>011-018-025>026-191100-
   North Central Minnesota   
  
CITY           SKY/WX    TMP DP  RH WIND       PRES   REMARKS
BAUDETTE       MOCLDY    65  62  90 NE9       29.82S                  
INTL FALLS     MOCLDY    64  62  93 NE6       29.80S                  
WASKISH        CLOUDY    64  63  94 NE6       29.80R                  
BIG FORK       CLOUDY    63  63 100 NE3       29.84S VSB 1/2          
LONGVILLE      DRIZZLE   63  63 100 CALM      29.75R                  
GRAND RAPIDS   CLOUDY    63  63 100 CALM      29.79R                  
CRANE LAKE       N/A     57  57 100 CALM      29.83R FOG              
ORR            MOCLDY    61  61 100 NE3       29.78S FOG              
COOK           FOG       61  59  94 CALM      29.80S VSB 1/4          
WALKER         DRIZZLE   63  63 100 NE8       29.76S                  
$$

SKY/WX - Weather  TMP - Temperature  DP - Dew Point  RH - Humidity
WIND - Wind Direction/Speed PRES - Barometric Pressure VSB - Visibility
WCI - Wind Chill Index E13G22 Wind - East Wind 13 mph/Gusts of 22 mph

Trending Headlines

Nett River Radar Loop



Nett River Quick Facts


National Two Day Weather Forecast


E-mail the Nett River Weather Forecast

Voice your opinion or tell us about page issues...